41P/Tuttle-Giacobini-Kresak (2017)

Japanese version
Home page
Updated on March 25, 2017

---------------------------------------------------------------------

* Profile

* Pictures

* Orbital Elements

Epoch 2017 Mar. 28.0 TT = JDT 2457840.5
T 2017 Apr. 12.75293 TT                                 MPCW
q   1.0450270            (2000.0)            P               Q
n   0.18195183     Peri.   62.15803     -0.91176325     +0.39816042
a   3.0843602      Node   141.06814     -0.41005922     -0.86860390
e   0.6611852      Incl.    9.22851     -0.02322087     -0.29495008
P   5.42
From 1650 observations 2006 Feb. 24-2017 Mar. 8, mean residual 0".6.
     Nongravitational parameters A1 = -0.12, A2 = -0.3591.

* Finding Charts

* Magnitudes Graph

        m1 = 13.5 + 5 log d + 18.0 log r  [   ,-65]  (             - 2017 Feb.  7)
        m1 =  8.5 + 5 log d + 55   log r  [-65,  0]  (2017 Feb.  7 - 2017 Apr. 13)
        m1 =  9.0 + 5 log d + 30   log r  [  0,   ]  (2017 Apr. 13 -             )

---------------------------------------------------------------------

The orbital elements are published on M.P.E.C. 2017-E59.
The charts are made with StellaNavigator Ver.10 (AstroArts).
The magnitudes graphs are made with Comet for Windows.

---------------------------------------------------------------------

Copyright(C) Seiichi Yoshida (comet@aerith.net). All rights reserved.